TimeCDT,TemperatureF,Dew PointF,Humidity,Sea Level PressureIn,VisibilityMPH,Wind Direction,Wind SpeedMPH,Gust SpeedMPH,PrecipitationIn,Events,Conditions,WindDirDegrees,DateUTC
12:53 AM,33.1,30.9,92,29.99,10.0,Calm,Calm,-,N/A,,Clear,0,2012-09-18 05:53:00
1:53 AM,30.0,28.0,92,29.99,9.0,Calm,Calm,-,N/A,,Clear,0,2012-09-18 06:53:00
2:39 AM,30.2,28.4,93,29.96,2.5,Calm,Calm,-,N/A,,Clear,0,2012-09-18 07:39:00
2:53 AM,30.0,27.0,88,29.99,10.0,Calm,Calm,-,N/A,,Clear,0,2012-09-18 07:53:00
3:53 AM,28.9,26.1,89,29.99,10.0,Calm,Calm,-,N/A,,Clear,0,2012-09-18 08:53:00
4:53 AM,28.9,25.0,85,29.99,10.0,Calm,Calm,-,N/A,,Clear,0,2012-09-18 09:53:00
5:16 AM,28.4,24.8,86,29.97,10.0,Calm,Calm,-,N/A,,Scattered Clouds,0,2012-09-18 10:16:00
5:53 AM,30.9,28.0,89,30.01,10.0,Calm,Calm,-,N/A,,Mostly Cloudy,0,2012-09-18 10:53:00
6:53 AM,28.9,25.0,85,30.02,9.0,Calm,Calm,-,N/A,,Clear,0,2012-09-18 11:53:00
7:15 AM,28.4,26.6,93,29.99,10.0,Calm,Calm,-,N/A,,Partly Cloudy,0,2012-09-18 12:15:00
7:24 AM,28.4,26.6,93,29.99,1.5,Calm,Calm,-,N/A,,Mostly Cloudy,0,2012-09-18 12:24:00
7:34 AM,30.2,28.4,93,29.99,5.0,Calm,Calm,-,N/A,,Mostly Cloudy,0,2012-09-18 12:34:00
7:45 AM,30.2,30.2,100,29.99,10.0,Calm,Calm,-,N/A,,Mostly Cloudy,0,2012-09-18 12:45:00
7:53 AM,32.0,30.9,96,30.03,10.0,Calm,Calm,-,N/A,,Partly Cloudy,0,2012-09-18 12:53:00
8:53 AM,42.1,36.0,79,30.03,10.0,NNW,3.5,-,N/A,,Clear,340,2012-09-18 13:53:00
9:53 AM,46.9,33.1,59,30.02,10.0,Calm,Calm,-,N/A,,Clear,0,2012-09-18 14:53:00
10:53 AM,48.9,30.0,48,30.02,10.0,Variable,6.9,-,N/A,,Clear,0,2012-09-18 15:53:00
11:53 AM,48.9,25.0,39,30.02,10.0,NW,8.1,-,N/A,,Partly Cloudy,310,2012-09-18 16:53:00
12:53 PM,53.1,25.0,34,30.02,10.0,Variable,4.6,-,N/A,,Partly Cloudy,0,2012-09-18 17:53:00
1:53 PM,54.0,21.9,29,30.00,10.0,Variable,5.8,-,N/A,,Partly Cloudy,0,2012-09-18 18:53:00
2:53 PM,55.0,21.0,27,29.99,10.0,Variable,5.8,-,N/A,,Clear,0,2012-09-18 19:53:00
3:53 PM,55.0,21.0,27,29.98,10.0,Variable,4.6,-,N/A,,Clear,0,2012-09-18 20:53:00
4:53 PM,55.9,23.0,28,29.98,10.0,Calm,Calm,-,N/A,,Clear,0,2012-09-18 21:53:00
5:53 PM,55.0,24.1,30,29.97,10.0,Calm,Calm,-,N/A,,Clear,0,2012-09-18 22:53:00
6:53 PM,46.9,27.0,46,29.98,10.0,Calm,Calm,-,N/A,,Clear,0,2012-09-18 23:53:00
7:53 PM,39.9,30.0,68,29.99,10.0,Calm,Calm,-,N/A,,Clear,0,2012-09-19 00:53:00
8:53 PM,34.0,28.0,79,29.99,10.0,Calm,Calm,-,N/A,,Clear,0,2012-09-19 01:53:00
9:53 PM,33.1,28.0,82,29.98,10.0,Calm,Calm,-,N/A,,Clear,0,2012-09-19 02:53:00
10:53 PM,36.0,28.9,76,29.96,10.0,Calm,Calm,-,N/A,,Clear,0,2012-09-19 03:53:00
11:53 PM,36.0,28.9,76,29.94,10.0,Calm,Calm,-,N/A,,Clear,0,2012-09-19 04:53:00